TimePDT,TemperatureF,Dew PointF,Humidity,Sea Level PressureIn,VisibilityMPH,Wind Direction,Wind SpeedMPH,Gust SpeedMPH,PrecipitationIn,Events,Conditions,WindDirDegrees,DateUTC
12:00 AM,50.0,48.2,94,29.63,3.5,SSW,11.5,27.6,N/A,,Mostly Cloudy,210,2012-10-19 07:00:00
12:02 AM,50.0,48.2,94,29.62,4.0,South,10.4,25.3,N/A,,Mostly Cloudy,190,2012-10-19 07:02:00
12:11 AM,50.0,48.2,94,29.62,9.0,South,12.7,19.6,N/A,,Overcast,190,2012-10-19 07:11:00
12:20 AM,50.0,48.2,94,29.61,8.0,South,19.6,31.1,N/A,,Mostly Cloudy,190,2012-10-19 07:20:00
12:23 AM,50.0,48.2,94,29.61,5.0,SSW,19.6,31.1,N/A,,Overcast,200,2012-10-19 07:23:00
1:00 AM,51.8,48.2,88,29.57,9.0,South,31.1,42.6,N/A,,Mostly Cloudy,180,2012-10-19 08:00:00
1:08 AM,51.8,48.2,88,29.54,9.0,South,28.8,42.6,N/A,,Scattered Clouds,170,2012-10-19 08:08:00
1:09 AM,51.8,48.2,88,29.54,9.0,South,32.2,46.0,N/A,,Scattered Clouds,180,2012-10-19 08:09:00
1:26 AM,51.8,48.2,88,29.54,9.0,South,28.8,39.1,N/A,,Clear,190,2012-10-19 08:26:00
1:59 AM,51.8,50.0,94,29.52,9.0,South,21.9,41.4,N/A,,Mostly Cloudy,190,2012-10-19 08:59:00
2:00 AM,52,49,88,29.54,9,South,25.3,,,,,180,2012-10-19 09:00:00
2:00 AM,51.8,50.0,94,29.54,9.0,South,20.7,41.4,N/A,,Mostly Cloudy,190,2012-10-19 09:00:00
2:29 AM,53.6,48.2,82,29.52,9.0,SSW,23.0,41.4,N/A,,Partly Cloudy,210,2012-10-19 09:29:00
3:00 AM,51.8,50.0,94,29.53,6.0,SSW,20.7,35.7,N/A,,Overcast,200,2012-10-19 10:00:00
3:10 AM,53.6,50.0,88,29.52,5.0,South,18.4,29.9,N/A,,Overcast,190,2012-10-19 10:10:00
3:46 AM,51.8,50.0,94,29.53,5.0,ESE,3.5,19.6,N/A,,Overcast,110,2012-10-19 10:46:00
3:59 AM,51.8,50.0,94,29.53,3.5,NNE,4.6,-,N/A,,Overcast,20,2012-10-19 10:59:00
4:00 AM,51.8,50.0,94,29.55,4.0,NNE,4.6,-,N/A,,Overcast,30,2012-10-19 11:00:00
4:01 AM,51.8,50.0,94,29.53,4.0,NE,6.9,-,N/A,,Overcast,40,2012-10-19 11:01:00
4:12 AM,50.0,48.2,94,29.52,3.5,North,9.2,-,N/A,,Overcast,10,2012-10-19 11:12:00
4:16 AM,50.0,48.2,94,29.51,3.5,NNE,8.1,-,N/A,,Overcast,20,2012-10-19 11:16:00
4:21 AM,50.0,48.2,94,-9999,4.0,NNE,6.9,-,N/A,,Overcast,30,2012-10-19 11:21:00
4:27 AM,50.0,50.0,100,29.51,6.0,North,6.9,-,N/A,,Overcast,10,2012-10-19 11:27:00
4:41 AM,50.0,50.0,100,29.51,2.1,Calm,Calm,-,N/A,,Overcast,0,2012-10-19 11:41:00
4:43 AM,50.0,50.0,100,29.51,1.4,Calm,Calm,-,N/A,,Overcast,0,2012-10-19 11:43:00
4:46 AM,50.0,50.0,100,29.51,1.1,North,4.6,-,N/A,,Overcast,350,2012-10-19 11:46:00
4:47 AM,50.0,50.0,100,29.51,1.0,North,5.8,-,N/A,,Overcast,10,2012-10-19 11:47:00
4:49 AM,50.0,50.0,100,29.51,0.6,Calm,Calm,-,N/A,,Overcast,0,2012-10-19 11:49:00
4:52 AM,50.0,50.0,100,29.51,0.6,NW,4.6,-,N/A,,Overcast,320,2012-10-19 11:52:00
4:53 AM,51.8,50.0,94,29.50,1.0,NW,5.8,-,N/A,,Overcast,310,2012-10-19 11:53:00
4:59 AM,51.8,50.0,94,29.50,5.0,West,4.6,-,N/A,,Mostly Cloudy,270,2012-10-19 11:59:00
5:00 AM,53,50,87,29.52,6,Calm,Calm,,,,,,2012-10-19 12:00:00
5:00 AM,51.8,50.0,94,29.52,6.0,WNW,3.5,-,N/A,,Mostly Cloudy,300,2012-10-19 12:00:00
5:04 AM,51.8,50.0,94,29.51,9.0,NNW,2.3,-,N/A,,Mostly Cloudy,330,2012-10-19 12:04:00
5:28 AM,51.8,50.0,94,29.50,9.0,NE,4.6,-,N/A,,Mostly Cloudy,40,2012-10-19 12:28:00
5:36 AM,51.8,50.0,94,29.51,9.0,ESE,3.5,-,N/A,,Mostly Cloudy,120,2012-10-19 12:36:00
5:42 AM,51.8,50.0,94,29.51,9.0,East,2.3,-,N/A,,Overcast,90,2012-10-19 12:42:00
6:00 AM,51.8,50.0,94,29.54,9.0,NE,3.5,-,N/A,,Overcast,50,2012-10-19 13:00:00
6:06 AM,51.8,50.0,94,29.52,9.0,NNE,8.1,-,N/A,,Overcast,20,2012-10-19 13:06:00
6:22 AM,51.8,50.0,94,29.52,9.0,North,3.5,-,N/A,,Mostly Cloudy,350,2012-10-19 13:22:00
6:27 AM,51.8,50.0,94,29.53,9.0,North,9.2,-,N/A,,Overcast,10,2012-10-19 13:27:00
6:42 AM,51.8,50.0,94,29.54,9.0,East,2.3,-,N/A,,Overcast,100,2012-10-19 13:42:00
6:44 AM,51.8,50.0,94,29.54,9.0,SE,4.6,-,N/A,,Overcast,140,2012-10-19 13:44:00
6:56 AM,51.8,50.0,94,29.53,6.0,North,2.3,-,N/A,,Mostly Cloudy,360,2012-10-19 13:56:00
7:00 AM,50.0,50.0,100,29.55,5.0,NNE,6.9,-,N/A,,Scattered Clouds,30,2012-10-19 14:00:00
7:01 AM,50.0,50.0,100,29.53,5.0,NNE,6.9,-,N/A,,Overcast,30,2012-10-19 14:01:00
7:53 AM,50.0,48.2,94,29.55,1.2,North,4.6,-,N/A,,Overcast,360,2012-10-19 14:53:00
7:54 AM,50.0,48.2,94,29.55,1.0,North,4.6,-,N/A,,Overcast,10,2012-10-19 14:54:00
7:55 AM,50.0,48.2,94,29.56,0.6,NNE,4.6,-,N/A,,Overcast,20,2012-10-19 14:55:00
8:00 AM,50,49,95,29.57,1,NNE,4.6,,,,Overcast,20,2012-10-19 15:00:00
8:00 AM,50.0,48.2,94,29.57,0.6,NNE,6.9,-,N/A,,Overcast,30,2012-10-19 15:00:00
8:04 AM,50.0,48.2,94,29.56,2.1,North,9.2,-,N/A,,Overcast,10,2012-10-19 15:04:00
8:14 AM,50.0,48.2,94,29.57,9.0,NE,5.8,-,N/A,,Overcast,50,2012-10-19 15:14:00
8:21 AM,50.0,48.2,94,29.57,9.0,NE,8.1,-,N/A,,Overcast,40,2012-10-19 15:21:00
8:23 AM,51.8,48.2,88,29.57,9.0,NE,3.5,-,N/A,,Overcast,40,2012-10-19 15:23:00
8:25 AM,50.0,48.2,94,29.57,9.0,NNE,3.5,-,N/A,,Overcast,30,2012-10-19 15:25:00
8:33 AM,50.0,48.2,94,29.58,9.0,North,4.6,-,N/A,,Overcast,10,2012-10-19 15:33:00
8:34 AM,51.8,48.2,88,29.58,9.0,North,4.6,-,N/A,,Overcast,10,2012-10-19 15:34:00
8:35 AM,51.8,48.2,88,29.58,9.0,North,4.6,-,N/A,,Overcast,10,2012-10-19 15:35:00
9:00 AM,51.8,48.2,88,29.60,9.0,North,2.3,-,N/A,,Overcast,10,2012-10-19 16:00:00
9:54 AM,51.8,50.0,94,29.58,9.0,Calm,Calm,-,N/A,,Overcast,0,2012-10-19 16:54:00
9:57 AM,51.8,50.0,94,29.58,9.0,Calm,Calm,-,N/A,,Overcast,0,2012-10-19 16:57:00
10:00 AM,51.8,50.0,94,29.60,9.0,East,2.3,-,N/A,,Overcast,80,2012-10-19 17:00:00
10:19 AM,51.8,50.0,94,29.59,9.0,North,6.9,-,N/A,,Overcast,10,2012-10-19 17:19:00
10:48 AM,53.6,50.0,88,29.58,9.0,NNE,6.9,-,N/A,,Overcast,30,2012-10-19 17:48:00
10:57 AM,53.6,51.8,94,29.58,9.0,NNE,5.8,-,N/A,,Overcast,20,2012-10-19 17:57:00
11:00 AM,54,51,86,29.59,9,NNE,5.8,,,,Overcast,20,2012-10-19 18:00:00
11:00 AM,53.6,51.8,94,29.59,9.0,North,5.8,-,N/A,,Overcast,10,2012-10-19 18:00:00
11:09 AM,53.6,50.0,88,29.58,9.0,North,10.4,-,N/A,,Overcast,360,2012-10-19 18:09:00
11:50 AM,57.2,51.8,82,29.56,9.0,SSW,20.7,27.6,N/A,,Mostly Cloudy,200,2012-10-19 18:50:00
11:57 AM,57.2,51.8,82,29.56,9.0,SSW,13.8,27.6,N/A,,Scattered Clouds,200,2012-10-19 18:57:00
12:00 PM,57.2,51.8,82,29.57,9.0,South,17.3,25.3,N/A,,Partly Cloudy,190,2012-10-19 19:00:00
12:35 PM,57.2,50.0,77,29.54,9.0,SSW,23.0,36.8,N/A,,Scattered Clouds,200,2012-10-19 19:35:00
12:50 PM,57.2,50.0,77,29.54,9.0,SSW,23.0,36.8,N/A,,Partly Cloudy,200,2012-10-19 19:50:00
1:00 PM,57.2,50.0,77,29.55,9.0,SSW,25.3,36.8,N/A,,Partly Cloudy,210,2012-10-19 20:00:00
1:21 PM,57.2,50.0,77,29.53,9.0,SSW,25.3,36.8,N/A,,Partly Cloudy,210,2012-10-19 20:21:00
1:50 PM,57.2,48.2,72,29.53,9.0,SSW,26.5,39.1,N/A,,Partly Cloudy,200,2012-10-19 20:50:00
2:00 PM,56,48,67,29.54,9,SSW,20.7,,,,,200,2012-10-19 21:00:00
2:03 PM,57.2,48.2,72,29.53,9.0,SSW,24.2,33.4,N/A,,Partly Cloudy,200,2012-10-19 21:03:00
2:54 PM,55.4,46.4,72,29.52,9.0,South,21.9,35.7,N/A,,Clear,190,2012-10-19 21:54:00
3:00 PM,55.4,46.4,72,29.53,9.0,SSW,20.7,33.4,N/A,,Clear,200,2012-10-19 22:00:00
3:05 PM,55.4,46.4,72,29.52,9.0,South,23.0,34.5,N/A,,Clear,190,2012-10-19 22:05:00
3:24 PM,55.4,46.4,72,29.52,9.0,SSW,21.9,38.0,N/A,,Clear,200,2012-10-19 22:24:00
4:02 PM,53.6,46.4,77,29.52,9.0,SSW,24.2,40.3,N/A,,Clear,210,2012-10-19 23:02:00
4:46 PM,53.6,44.6,72,29.53,9.0,SSW,21.9,39.1,N/A,,Clear,210,2012-10-19 23:46:00
5:00 PM,53,44,62,29.55,9,SSW,23.0,,,,,210,2012-10-20 00:00:00
5:00 PM,53.6,44.6,72,29.55,9.0,SSW,24.2,39.1,N/A,,Partly Cloudy,210,2012-10-20 00:00:00
5:06 PM,53.6,42.8,67,29.53,9.0,SSW,21.9,39.1,N/A,,Partly Cloudy,210,2012-10-20 00:06:00
6:00 PM,51.8,42.8,71,29.54,9.0,SSW,21.9,28.8,N/A,,Partly Cloudy,210,2012-10-20 01:00:00
7:00 PM,50.0,41.0,71,29.55,9.0,SSW,25.3,36.8,N/A,,Clear,200,2012-10-20 02:00:00
8:00 PM,50,40,59,29.57,9,South,26.5,,,,,190,2012-10-20 03:00:00
8:00 PM,50.0,39.2,66,29.57,9.0,South,23.0,39.1,N/A,,Clear,190,2012-10-20 03:00:00
9:00 PM,48.2,39.2,71,29.58,9.0,SSW,21.9,36.8,N/A,,Clear,200,2012-10-20 04:00:00
10:00 PM,48.2,37.4,66,29.58,9.0,South,21.9,34.5,N/A,,Clear,190,2012-10-20 05:00:00
11:00 PM,47,38,61,29.58,9,South,23.0,,,,,190,2012-10-20 06:00:00
11:00 PM,46.4,37.4,71,29.58,9.0,South,21.9,35.7,N/A,,Clear,190,2012-10-20 06:00:00